Location: Flynn Junction
(40.1314°N, 99.5162°W)
Time: 21:04:41
(UTC+00:00)

Meteor 1-31 Rocket - Pass Details

Date: 29 October 2020
Orbit: 521 x 546 km, 97.6° (Epoch: 01 December)

Event Time Altitude Azimuth Distance (km) Brightness Sun altitude
Rises 12:05:05 0° 1° (N) 2,723 6.3 -11.9°
Reaches altitude 10° 12:07:23 10° 351° (N) 1,825 5.3 -11.5°
Maximum altitude 12:10:52 31° 289° (WNW) 976 3.5 -10.8°
Drops below altitude 10° 12:14:20 10° 227° (SW) 1,806 5.1 -10.2°
Sets 12:16:35 0° 216° (SW) 2,691 6.1 -9.8°
